{"data":{"norad_id":67536,"intl_designator":"2026-014E","name":"STARLINK-36572","alt_names":[],"object_type":"PAYLOAD","status":"ACTIVE","operator":null,"country":"US","launch_date":"2026-01-22","launch_site_code":"AFWTR","launch_vehicle":null,"mission":null,"orbit_class":"UNKNOWN","rcs_meters":null,"size_class":null,"mass_kg":null,"dimensions":null,"purposes":["comms"],"wikipedia_slug":null,"has_3d_model":false,"image_url":null,"decayed_at":null,"tle_current":{"epoch":"2026-09-19T23:05:56.971680Z","epoch_age_seconds":118760,"freshness":"FRESH","line1":"1 67536U 26014E   26262.96246495  .00013057  00000+0  40583-3 0  9991","line2":"2 67536  97.2858 148.3000 0002159  92.0398 268.1092 15.33462394 38551","mean_motion":15.33462394,"eccentricity":0.0002159,"inclination_deg":97.2858,"raan_deg":148.3,"arg_perigee_deg":92.0398,"mean_anomaly_deg":268.1092,"bstar":0.00040583,"rev_number":3855,"period_min":93.905139482671,"perigee_km":464.01388328459,"apogee_km":466.96896203749,"semimajor_km":6843.628422661,"source":"CELESTRAK","updated_at":"2026-09-20T09:00:43.566632Z"}}}